Time,TemperatureF,DewpointF,PressureIn,WindDirection,WindDirectionDegrees,WindSpeedMPH,WindSpeedGustMPH,Humidity,HourlyPrecipIn,Conditions,Clouds,dailyrainin,SoftwareType,DateUTC
2013-09-27 00:11:00,31.0,30.0,30.09,WNW,300,0.0,-999.0,95,-99.99,,,-99.99,,2013-09-27 06:11:00,
2013-09-27 00:22:00,31.0,30.0,30.10,WNW,300,0.0,-999.0,95,-99.99,,,-99.99,,2013-09-27 06:22:00,
2013-09-27 00:42:00,31.0,30.0,30.11,WNW,300,0.0,-999.0,95,-99.99,,,-99.99,,2013-09-27 06:42:00,
2013-09-27 00:52:00,31.0,30.0,30.11,WNW,300,0.0,-999.0,95,-99.99,,,-99.99,,2013-09-27 06:52:00,
2013-09-27 01:12:00,31.0,30.0,30.12,WNW,300,0.0,-999.0,95,-99.99,,,-99.99,,2013-09-27 07:12:00,
2013-09-27 01:22:00,31.0,30.0,30.11,WNW,300,0.0,-999.0,95,-99.99,,,-99.99,,2013-09-27 07:22:00,
2013-09-27 01:43:00,31.0,30.0,30.10,WNW,300,0.0,-999.0,95,-99.99,,,-99.99,,2013-09-27 07:43:00,
2013-09-27 01:53:00,31.0,30.0,30.11,WNW,300,0.0,-999.0,95,-99.99,,,-99.99,,2013-09-27 07:53:00,
2013-09-27 02:11:00,31.0,30.0,30.12,WNW,300,0.0,-999.0,95,-99.99,,,-99.99,,2013-09-27 08:11:00,
2013-09-27 02:22:00,31.0,30.0,30.11,WNW,300,0.0,-999.0,95,-99.99,,,-99.99,,2013-09-27 08:22:00,
2013-09-27 02:32:00,31.0,30.0,30.11,WNW,300,0.0,-999.0,95,-99.99,,,-99.99,,2013-09-27 08:32:00,
2013-09-27 02:42:00,31.0,30.0,30.11,WNW,300,0.0,-999.0,95,-99.99,,,-99.99,,2013-09-27 08:42:00,
2013-09-27 02:52:00,31.0,30.0,30.10,WNW,300,0.0,-999.0,95,-99.99,,,-99.99,,2013-09-27 08:52:00,
2013-09-27 03:11:00,31.0,30.0,30.11,WNW,300,0.0,-999.0,95,-99.99,,,-99.99,,2013-09-27 09:11:00,
2013-09-27 03:22:00,31.0,30.0,30.10,WNW,300,0.0,-999.0,95,-99.99,,,-99.99,,2013-09-27 09:22:00,
2013-09-27 03:44:00,31.0,30.0,30.09,WNW,300,0.0,-999.0,95,-99.99,,,-99.99,,2013-09-27 09:44:00,
2013-09-27 03:53:00,31.0,30.0,30.10,WNW,300,0.0,-999.0,95,-99.99,,,-99.99,,2013-09-27 09:53:00,
2013-09-27 04:12:00,31.0,30.0,30.10,WNW,300,0.0,-999.0,95,-99.99,,,-99.99,,2013-09-27 10:12:00,
2013-09-27 04:23:00,31.0,30.0,30.11,WNW,300,0.0,-999.0,95,-99.99,,,-99.99,,2013-09-27 10:23:00,
2013-09-27 04:42:00,31.0,30.0,30.10,WNW,300,0.0,-999.0,95,-99.99,,,-99.99,,2013-09-27 10:42:00,
2013-09-27 04:52:00,31.0,30.0,30.09,WNW,300,0.0,-999.0,95,-99.99,,,-99.99,,2013-09-27 10:52:00,
2013-09-27 05:11:00,31.0,30.0,30.10,WNW,300,0.0,-999.0,95,-99.99,,,-99.99,,2013-09-27 11:11:00,
2013-09-27 05:22:00,31.0,30.0,30.10,WNW,300,0.0,-999.0,95,-99.99,,,-99.99,,2013-09-27 11:22:00,
2013-09-27 05:42:00,31.0,30.0,30.11,WNW,300,0.0,-999.0,95,-99.99,,,-99.99,,2013-09-27 11:42:00,
2013-09-27 05:52:00,31.0,30.0,30.12,WNW,300,0.0,-999.0,95,-99.99,,,-99.99,,2013-09-27 11:52:00,
2013-09-27 06:11:00,31.0,30.0,30.11,WNW,300,0.0,-999.0,95,-99.99,,,-99.99,,2013-09-27 12:11:00,
2013-09-27 06:21:00,31.0,30.0,30.12,WNW,300,0.0,-999.0,95,-99.99,,,-99.99,,2013-09-27 12:21:00,
2013-09-27 06:42:00,31.0,30.0,30.12,WNW,300,0.0,-999.0,96,-99.99,,,-99.99,,2013-09-27 12:42:00,
2013-09-27 06:52:00,31.0,30.0,30.11,WNW,300,0.0,-999.0,96,-99.99,,,-99.99,,2013-09-27 12:52:00,
2013-09-27 07:11:00,31.0,30.0,30.11,WNW,300,0.0,-999.0,96,-99.99,,,-99.99,,2013-09-27 13:11:00,
2013-09-27 07:21:00,31.0,30.0,30.12,WNW,300,0.0,-999.0,96,-99.99,,,-99.99,,2013-09-27 13:21:00,
2013-09-27 07:52:00,31.0,30.0,30.12,WNW,300,0.0,-999.0,96,-99.99,,,-99.99,,2013-09-27 13:52:00,
2013-09-27 08:11:00,31.0,30.0,30.13,WNW,300,0.0,-999.0,96,-99.99,,,-99.99,,2013-09-27 14:11:00,
2013-09-27 08:21:00,31.0,30.0,30.13,WNW,300,0.0,-999.0,96,-99.99,,,-99.99,,2013-09-27 14:21:00,
2013-09-27 08:52:00,32.0,31.0,30.14,WNW,300,0.0,-999.0,96,-99.99,,,-99.99,,2013-09-27 14:52:00,
2013-09-27 09:11:00,33.0,32.0,30.11,WNW,300,0.0,-999.0,96,-99.99,,,-99.99,,2013-09-27 15:11:00,
2013-09-27 09:21:00,33.0,32.0,30.11,WNW,300,0.0,-999.0,96,-99.99,,,-99.99,,2013-09-27 15:21:00,
2013-09-27 09:33:00,33.0,32.0,30.11,WNW,300,0.0,-999.0,96,-99.99,,,-99.99,,2013-09-27 15:33:00,
2013-09-27 17:12:00,37.0,34.0,30.17,South,169,0.0,-999.0,87,-99.99,,,-99.99,,2013-09-27 23:12:00,
2013-09-27 17:22:00,36.0,33.0,30.18,SSE,167,0.0,-999.0,88,-99.99,,,-99.99,,2013-09-27 23:22:00,
2013-09-27 17:43:00,36.0,33.0,30.19,SSE,167,0.0,-999.0,89,-99.99,,,-99.99,,2013-09-27 23:43:00,
2013-09-27 17:53:00,36.0,33.0,30.19,SSE,167,0.0,-999.0,89,-99.99,,,-99.99,,2013-09-27 23:53:00,
2013-09-27 18:12:00,36.0,33.0,30.20,SSE,167,0.0,-999.0,89,-99.99,,,-99.99,,2013-09-28 00:12:00,
2013-09-27 18:22:00,36.0,33.0,30.20,SW,221,3.0,-999.0,89,-99.99,,,-99.99,,2013-09-28 00:22:00,
2013-09-27 18:42:00,36.0,33.0,30.20,SSW,213,0.0,-999.0,89,-99.99,,,-99.99,,2013-09-28 00:42:00,
2013-09-27 18:52:00,36.0,33.0,30.21,SSW,207,0.0,-999.0,90,-99.99,,,-99.99,,2013-09-28 00:52:00,
2013-09-27 19:12:00,35.0,32.0,30.22,South,182,0.0,-999.0,90,-99.99,,,-99.99,,2013-09-28 01:12:00,
2013-09-27 19:21:00,35.0,32.0,30.22,SSE,168,0.0,-999.0,90,-99.99,,,-99.99,,2013-09-28 01:21:00,
2013-09-27 19:42:00,34.0,32.0,30.22,SSE,167,0.0,-999.0,91,-99.99,,,-99.99,,2013-09-28 01:42:00,
2013-09-27 19:52:00,34.0,32.0,30.22,SSE,164,0.0,-999.0,92,-99.99,,,-99.99,,2013-09-28 01:52:00,
2013-09-27 20:12:00,34.0,32.0,30.22,SSE,162,1.0,-999.0,92,-99.99,,,-99.99,,2013-09-28 02:12:00,
2013-09-27 20:22:00,33.0,31.0,30.23,SSE,162,0.0,-999.0,92,-99.99,,,-99.99,,2013-09-28 02:22:00,
2013-09-27 20:42:00,33.0,31.0,30.24,SSE,162,0.0,-999.0,93,-99.99,,,-99.99,,2013-09-28 02:42:00,
2013-09-27 20:53:00,33.0,31.0,30.24,SSE,161,0.0,-999.0,93,-99.99,,,-99.99,,2013-09-28 02:53:00,
2013-09-27 21:12:00,33.0,31.0,30.24,SSE,161,0.0,-999.0,93,-99.99,,,-99.99,,2013-09-28 03:12:00,
2013-09-27 21:22:00,33.0,31.0,30.25,SSE,160,1.0,-999.0,93,-99.99,,,-99.99,,2013-09-28 03:22:00,
2013-09-27 21:55:00,33.0,31.0,30.25,SSE,162,0.0,-999.0,93,-99.99,,,-99.99,,2013-09-28 03:55:00,
2013-09-27 22:24:00,32.0,30.0,30.25,SSE,162,0.0,-999.0,94,-99.99,,,-99.99,,2013-09-28 04:24:00,
2013-09-27 22:43:00,32.0,30.0,30.25,SSE,162,0.0,-999.0,94,-99.99,,,-99.99,,2013-09-28 04:43:00,
2013-09-27 22:54:00,32.0,30.0,30.26,SSW,194,0.0,-999.0,94,-99.99,,,-99.99,,2013-09-28 04:54:00,
2013-09-27 23:12:00,32.0,30.0,30.26,SSW,197,0.0,-999.0,93,-99.99,,,-99.99,,2013-09-28 05:12:00,
2013-09-27 23:22:00,32.0,30.0,30.26,SSW,197,0.0,-999.0,93,-99.99,,,-99.99,,2013-09-28 05:22:00,
2013-09-27 23:53:00,32.0,30.0,30.26,SSW,197,0.0,-999.0,93,-99.99,,,-99.99,,2013-09-28 05:53:00,